This is the latest recevied weather packets stored in our database for station/object VK6WB. If no packets are shown the sender has not sent any weather packets the latest 10 day(s).
| Time | Temp. | Humidity | Pressure | Rain* | Wind** | Luminosity | Snow |
|---|---|---|---|---|---|---|---|
| 1777861204 | 15° C | 10% | 1023.9 hPa | 0 mm | - | 11 W/m² | - |
| 1777860604 | 15.56° C | 10% | 1023.9 hPa | 0 mm | - | 11 W/m² | - |
| 1777860005 | 18.33° C | 10% | 1024 hPa | 0 mm | - | 11 W/m² | - |
| 1777859404 | 17.78° C | 10% | 1023.9 hPa | 0 mm | - | 11 W/m² | - |
| 1777858804 | 18.89° C | 10% | 1023.9 hPa | 0 mm | - | 11 W/m² | - |
| 1777858204 | 6.67° C | 10% | 1023.8 hPa | 0 mm | - | 11 W/m² | - |
| 1777857604 | 8.89° C | 10% | 1023.9 hPa | 0 mm | - | 11 W/m² | - |
| 1777857004 | 16.11° C | 10% | 1024 hPa | 0 mm | - | 11 W/m² | - |
| 1777856404 | 16.11° C | 10% | 1024 hPa | 0 mm | - | 11 W/m² | - |
| 1777855805 | 15.56° C | 10% | 1024 hPa | 0 mm | - | 11 W/m² | - |
| 1777855204 | 15.56° C | 10% | 1024 hPa | 0 mm | - | 11 W/m² | - |
| 1777854605 | 15° C | 10% | 1024.1 hPa | 0 mm | - | 11 W/m² | - |
| 1777854004 | 14.44° C | 10% | 1023.9 hPa | 0 mm | - | 11 W/m² | - |
| 1777853404 | 14.44° C | 10% | 1023.9 hPa | 0 mm | - | 11 W/m² | - |
| 1777852805 | 13.89° C | 10% | 1023.8 hPa | 0 mm | - | 11 W/m² | - |
| 1777852204 | 13.33° C | 10% | 1023.7 hPa | 0 mm | - | 11 W/m² | - |
| 1777851604 | 12.22° C | 10% | 1023.6 hPa | 0 mm | - | 11 W/m² | - |
| 1777851005 | 11.67° C | 10% | 1023.5 hPa | 0 mm | - | 11 W/m² | - |
| 1777850404 | 10.56° C | 10% | 1023.4 hPa | 0 mm | - | 11 W/m² | - |
| 1777849803 | 10.56° C | 10% | 1023.2 hPa | 0 mm | - | 11 W/m² | - |
| 1777849204 | 10° C | 10% | 1023.1 hPa | 0 mm | - | 63 W/m² | - |
| 1777848604 | 10° C | 10% | 1023 hPa | 0 mm | - | 63 W/m² | - |
| 1777848005 | 10° C | 10% | 1023.2 hPa | 0 mm | - | 63 W/m² | - |
| 1777847405 | 10° C | 10% | 1023.3 hPa | 0 mm | - | 115 W/m² | - |
| 1777846804 | 10° C | 10% | 1023.2 hPa | 0 mm | - | 115 W/m² | - |
* Rain latest hour (hover to see other rain measurements)
** Current wind speed in m/s (hover to see current wind gust speed)